User: anonymous   Login
Location: Oshawa
(43.9000°N, 78.8670°W)
Time: 09:02:52
(UTC-04:00)
Language:

Cosmos 1805 Rocket - Orbit

View from above orbital plane
View from above orbital plane
View from above satellite
View from above satellite

Ground track
Ground track

The orbit data is extracted from the following two-line orbital elements,

1 17192U 86097B   16211.57204454  .00000089  00000-0  78185-5 0  9993
2 17192  82.5054 199.2862 0018571  85.4135  54.4693 14.83452565600854
Epoch (UTC): 29 July 2016 13:43:44
Eccentricity: 0.0018571
inclination: 82.5054°
perigee height: 605 km
apogee height: 631 km
right ascension of ascending node: 199.2862°
argument of perigee: 85.4135°
revolutions per day: 14.83452565
mean anomaly at epoch: 54.4693°
orbit number at epoch: 60085

The dashed part of the orbit path shows where the satellite is in the earth's shadow,  

DLR